Weather History for Bar Harbor, ME

Change the Weather History Date:

Sunday, February 17, 2013

  Actual Average Record
Temperature  
Mean Temperature 22 °F -  
Max Temperature 26 °F 32 °F 55 °F (1981)
Min Temperature 19 °F 12 °F -9 °F (1979)
Degree Days  
Heating Degree Days 42    
Moisture  
Dew Point 19 °F    
Average Humidity 90    
Maximum Humidity 100    
Minimum Humidity 74    
Precipitation  
Precipitation 0.01 in - - ()
Sea Level Pressure  
Sea Level Pressure 29.24 in    
Wind  
Wind Speed 16 mph (NNW)    
Max Wind Speed 25 mph    
Max Gust Speed 40 mph    
Visibility 4 miles    
Events      
Averages and records for this station are not official NWS values.
T = Trace of Precipitation, MM = Missing Value Source: NWS Daily Summary

Daily Weather History Graph

Daily Weather History Graph

Search for Another Location

Airport:

Trip Planner

Search our weather history database for the weather conditions in past years. The results will help you decide how hot, cold, wet, or windy it might be!

Date:

Astronomy

Feb. 17, 2013 Rise Set
Actual Time 6:30 AM EST 5:05 PM EST
Civil Twilight 6:00 AM EST 5:35 PM EST
Nautical Twilight 5:26 AM EST 6:09 PM EST
Astronomical Twilight 4:52 AM EST 6:42 PM EST
Moon 10:02 AM EST (2/17) 12:15 AM EST (2/17)
Length of Visible Light 11h 34m
Length of Day
10h 35m
Waxing Crescent, 49% of the Moon is Illuminated
Feb 17
Waxing Crescent
Feb 17
First Quarter
Feb 25
Full
Mar 4
Last Quarter
Mar 11
New

Hourly Weather History & Observations

Time (EST) Temp. Windchill Dew Point Humidity Pressure Visibility Wind Dir Wind Speed Gust Speed Precip Events Conditions
12:15 AM 26.6 °F 16.8 °F 26.6 °F 100% 29.73 in 2.5 mi North 10.4 mph 19.6 mph N/A   Overcast
12:35 AM 26.6 °F 16.2 °F 24.8 °F 93% 29.71 in 3.0 mi North 11.5 mph 21.9 mph N/A   Overcast
12:55 AM 26.6 °F 15.2 °F 24.8 °F 93% 29.68 in 5.0 mi North 13.8 mph 24.2 mph N/A   Overcast
1:15 AM 26.6 °F 14.7 °F 24.8 °F 93% 29.66 in 10.0 mi North 15.0 mph 25.3 mph N/A   Overcast
1:35 AM 24.8 °F 11.5 °F 23.0 °F 93% 29.65 in 10.0 mi North 17.3 mph 23.0 mph N/A   Overcast
1:55 AM 24.8 °F 12.4 °F 23.0 °F 93% 29.62 in 10.0 mi North 15.0 mph 25.3 mph N/A   Overcast
2:15 AM 24.8 °F 13.4 °F 23.0 °F 93% 29.63 in 9.0 mi North 12.7 mph 24.2 mph N/A   Overcast
2:35 AM 24.8 °F 13.4 °F 23.0 °F 93% 29.63 in 10.0 mi North 12.7 mph 18.4 mph N/A   Overcast
2:55 AM 24.8 °F 12.9 °F 23.0 °F 93% 29.61 in 3.0 mi NNW 13.8 mph 18.4 mph N/A   Overcast
3:15 AM 24.8 °F 12.9 °F 23.0 °F 93% 29.57 in 1.5 mi North 13.8 mph 21.9 mph N/A   Overcast
3:35 AM 23.0 °F 12.4 °F 21.2 °F 93% 29.59 in 1.2 mi North 10.4 mph 21.9 mph 0.01 in   Overcast
3:55 AM 23.0 °F 10.6 °F 21.2 °F 93% 29.56 in 1.5 mi North 13.8 mph 24.2 mph 0.01 in   Overcast
4:35 AM 23.0 °F 11.7 °F 21.2 °F 93% 29.53 in 1.8 mi NNW 11.5 mph 25.3 mph N/A   Overcast
4:55 AM 23.0 °F 11.7 °F 21.2 °F 93% 29.53 in 4.0 mi North 11.5 mph 18.4 mph N/A   Overcast
5:15 AM 23.0 °F 11.1 °F 21.2 °F 93% 29.50 in 9.0 mi NNW 12.7 mph 19.6 mph N/A   Overcast
5:35 AM 23.0 °F 9.6 °F 21.2 °F 93% 29.47 in 9.0 mi North 16.1 mph 23.0 mph N/A   Overcast
5:55 AM 21.2 °F 6.8 °F 19.4 °F 93% 29.46 in 10.0 mi North 17.3 mph 25.3 mph N/A   Overcast
6:15 AM 21.2 °F 6.4 °F 19.4 °F 93% 29.43 in 9.0 mi North 18.4 mph 26.5 mph N/A   Overcast
6:35 AM 21.2 °F 5.6 °F 19.4 °F 93% 29.42 in 4.0 mi North 20.7 mph 29.9 mph N/A   Overcast
6:55 AM 21.2 °F 8.3 °F 19.4 °F 93% 29.41 in 7.0 mi North 13.8 mph 21.9 mph N/A   Overcast
7:15 AM 21.2 °F 8.9 °F 19.4 °F 93% 29.39 in 10.0 mi North 12.7 mph 23.0 mph N/A   Overcast
7:35 AM 21.2 °F 7.3 °F 19.4 °F 93% 29.37 in 10.0 mi North 16.1 mph 25.3 mph N/A   Overcast
7:55 AM 21.2 °F 8.3 °F 19.4 °F 93% 29.35 in 10.0 mi North 13.8 mph 23.0 mph N/A   Overcast
8:35 AM 21.2 °F 4.9 °F 19.4 °F 93% 29.28 in 2.0 mi North 23.0 mph 29.9 mph N/A   Overcast
8:55 AM 21.2 °F 7.8 °F 19.4 °F 93% 29.27 in 4.0 mi North 15.0 mph 27.6 mph N/A   Overcast
9:15 AM 21.2 °F 6.0 °F 19.4 °F 93% 29.24 in 5.0 mi North 19.6 mph 31.1 mph N/A   Overcast
9:35 AM 21.2 °F 5.6 °F 19.4 °F 93% 29.22 in 5.0 mi North 20.7 mph 28.8 mph N/A   Overcast
9:55 AM 21.2 °F 5.6 °F 19.4 °F 93% 29.21 in 4.0 mi North 20.7 mph 33.4 mph N/A   Overcast
10:15 AM 23.0 °F 9.6 °F 19.4 °F 86% 29.18 in 1.8 mi North 16.1 mph 27.6 mph N/A   Overcast
10:35 AM 23.0 °F 8.7 °F 21.2 °F 93% 29.17 in 3.0 mi North 18.4 mph 29.9 mph N/A   Overcast
10:55 AM 23.0 °F 8.3 °F 21.2 °F 93% 29.14 in 2.5 mi North 19.6 mph 29.9 mph N/A   Overcast
11:15 AM 23.0 °F 8.7 °F 21.2 °F 93% 29.11 in 1.8 mi NNW 18.4 mph 29.9 mph N/A   Overcast
11:35 AM 23.0 °F 8.3 °F 21.2 °F 93% 29.06 in 1.2 mi North 19.6 mph 28.8 mph N/A   Overcast
11:55 AM 23.0 °F 7.6 °F 21.2 °F 93% 29.03 in 1.0 mi NNW 21.9 mph 35.7 mph N/A   Overcast
12:15 PM 24.8 °F 12.4 °F 21.2 °F 86% 29.02 in 1.8 mi NNW 15.0 mph 32.2 mph N/A   Overcast
12:36 PM 23.0 °F 8.3 °F 21.2 °F 93% 29.00 in 1.0 mi NNW 19.6 mph 35.7 mph N/A   Overcast
12:55 PM 23.0 °F 8.0 °F 21.2 °F 93% 28.98 in 0.5 mi NNW 20.7 mph 34.5 mph N/A   Overcast
1:15 PM 23.0 °F 9.2 °F 21.2 °F 93% 28.98 in 0.8 mi NNW 17.3 mph 33.4 mph N/A   Overcast
1:35 PM 23.0 °F 10.6 °F 21.2 °F 93% 28.98 in 1.0 mi NNW 13.8 mph 27.6 mph N/A   Overcast
1:55 PM 23.0 °F 7.6 °F 21.2 °F 93% 28.95 in 0.5 mi NNW 21.9 mph 35.7 mph N/A   Overcast
2:15 PM 23.0 °F 7.6 °F 21.2 °F 93% 28.96 in 0.8 mi NNW 21.9 mph 38.0 mph N/A   Overcast
2:35 PM 23.0 °F 9.2 °F 21.2 °F 93% 28.96 in 0.8 mi NNW 17.3 mph 34.5 mph N/A   Overcast
2:55 PM 23.0 °F 9.2 °F 21.2 °F 93% 28.97 in 0.5 mi NNW 17.3 mph 29.9 mph N/A   Overcast
3:15 PM 23.0 °F 9.2 °F 21.2 °F 93% 28.97 in 0.5 mi NW 17.3 mph 32.2 mph N/A   Overcast
3:35 PM 23.0 °F 6.6 °F 21.2 °F 93% 28.97 in 0.5 mi NNW 25.3 mph 35.7 mph N/A   Overcast
3:55 PM 23.0 °F 7.6 °F 21.2 °F 93% 28.97 in 0.8 mi NNW 21.9 mph 40.3 mph N/A   Overcast
4:15 PM 23.0 °F 8.3 °F 21.2 °F 93% 28.98 in 0.8 mi NW 19.6 mph 38.0 mph N/A   Overcast
4:35 PM 21.2 °F 8.3 °F 19.4 °F 93% 28.99 in 1.0 mi NW 13.8 mph 25.3 mph N/A   Overcast
4:55 PM 21.2 °F 6.0 °F 19.4 °F 93% 28.99 in 0.8 mi NW 19.6 mph 34.5 mph N/A   Overcast
5:15 PM 19.4 °F 4.1 °F 17.6 °F 93% 29.00 in 0.8 mi NW 18.4 mph 35.7 mph N/A   Overcast
5:35 PM 19.4 °F 4.1 °F 17.6 °F 93% 29.02 in 1.8 mi NW 18.4 mph 32.2 mph N/A   Overcast
5:55 PM 21.2 °F 4.9 °F 17.6 °F 86% 29.02 in 1.8 mi NW 23.0 mph 34.5 mph N/A   Overcast
6:15 PM 21.2 °F 7.8 °F 19.4 °F 93% 29.04 in 1.5 mi NW 15.0 mph 32.2 mph N/A   Overcast
6:35 PM 21.2 °F 6.0 °F 19.4 °F 93% 29.04 in 1.5 mi NW 19.6 mph 35.7 mph N/A   Overcast
6:55 PM 21.2 °F 5.6 °F 19.4 °F 93% 29.05 in 1.2 mi NW 20.7 mph 35.7 mph N/A   Overcast
7:15 PM 19.4 °F 5.5 °F 17.6 °F 93% 29.06 in 1.5 mi NW 15.0 mph 33.4 mph N/A   Overcast
7:35 PM 19.4 °F 5.0 °F 17.6 °F 93% 29.07 in 1.8 mi NW 16.1 mph 29.9 mph N/A   Overcast
7:55 PM 19.4 °F 3.6 °F 17.6 °F 93% 29.08 in 2.0 mi NW 19.6 mph 33.4 mph N/A   Overcast
8:15 PM 19.4 °F 4.5 °F 15.8 °F 86% 29.10 in 4.0 mi WNW 17.3 mph 32.2 mph N/A   Overcast
8:35 PM 19.4 °F 2.5 °F 14.0 °F 80% 29.11 in 4.0 mi NW 23.0 mph 29.9 mph N/A   Overcast
8:55 PM 19.4 °F 5.0 °F 12.2 °F 74% 29.13 in 5.0 mi WNW 16.1 mph 32.2 mph N/A   Overcast
9:15 PM 19.4 °F 4.5 °F 12.2 °F 74% 29.14 in 7.0 mi WNW 17.3 mph 32.2 mph N/A   Overcast
9:35 PM 19.4 °F 4.1 °F 12.2 °F 74% 29.14 in 3.0 mi WNW 18.4 mph 29.9 mph N/A   Overcast
10:15 PM 19.4 °F 4.5 °F 12.2 °F 74% 29.17 in 6.0 mi WNW 17.3 mph 26.5 mph N/A   Overcast
10:35 PM 19.4 °F 5.5 °F 12.2 °F 74% 29.18 in 10.0 mi WNW 15.0 mph 25.3 mph N/A   Overcast
10:55 PM 19.4 °F 6.6 °F 12.2 °F 74% 29.20 in 8.0 mi WNW 12.7 mph 24.2 mph N/A   Overcast
11:15 PM 19.4 °F 6.6 °F 12.2 °F 74% 29.22 in 5.0 mi WNW 12.7 mph 32.2 mph N/A   Overcast
11:35 PM 19.4 °F 6.0 °F 12.2 °F 74% 29.23 in 7.0 mi West 13.8 mph 29.9 mph N/A   Mostly Cloudy
11:55 PM 19.4 °F 5.0 °F 12.2 °F 74% 29.24 in 5.0 mi WNW 16.1 mph 27.6 mph N/A   Overcast